GSAT0226 (GALILEO 31)

Last updated on Sun Sep 20 2026 00:02:47 GMT+0000 (Coordinated Universal Time)

1 61183U 24167B 26262.15121089 .00000017 00000+0 00000+0 0 9990 2 61183 55.1639 218.7444 0002248 247.7759 240.1560 1.70473729 12457
UTC large
Height (km)
Speed (km/s)
/
Latitude / Longitude
Inclination (degrees)
Orbital Period (minutes)
Azimuth
Elevation
Range (km)
Doppler Factor

Next 0 passes for location: London (51.5072 / 0.1276)

No passes found over London.
GSAT0226 (GALILEO 31)